Location: Saint Louis
(38.6272°N, 90.1978°W)
Time: 22:04:45
(UTC-05:00)

ISS - Pass Details

Date: 27 December 2012
Orbit: 402 x 404 km, 51.6° (Epoch: 29 May)

Event Time Altitude Azimuth Distance (km) Brightness Sun altitude
Rises 18:09:44 0° 312° (NW) 2,370 1.0 -15.7°
Reaches altitude 10° 18:11:54 10° 318° (NW) 1,496 -0.1 -16.1°
Maximum altitude 18:15:10 49° 35° (NE) 541 -3.1 -16.7°
Enters shadow 18:15:35 46° 62° (ENE) 567 -3.1 -16.7°
